Time,TemperatureF,DewpointF,PressureIn,WindDirection,WindDirectionDegrees,WindSpeedMPH,WindSpeedGustMPH,Humidity,HourlyPrecipIn,Conditions,Clouds,dailyrainin,SoftwareType,DateUTC
2013-01-21 00:00:00,34.5,20.4,30.13,North,9,2.0,8.0,56,0.00,,FEW047,0.00,VWS V14.01,2013-01-21 06:00:00,
2013-01-21 00:05:00,34.3,20.7,30.13,NNW,346,1.0,5.0,57,0.00,,FEW047,0.00,VWS V14.01,2013-01-21 06:05:00,
2013-01-21 00:10:00,34.1,20.5,30.13,NW,312,2.0,8.0,57,0.00,,FEW047,0.00,VWS V14.01,2013-01-21 06:10:00,
2013-01-21 00:15:00,33.8,19.4,30.13,NNE,25,5.0,8.0,55,0.00,,FEW047,0.00,VWS V14.01,2013-01-21 06:15:00,
2013-01-21 00:20:00,33.6,19.2,30.13,NNE,20,5.0,8.0,55,0.00,,FEW047,0.00,VWS V14.01,2013-01-21 06:20:00,
2013-01-21 00:25:00,33.4,19.0,30.13,North,9,5.0,8.0,55,0.00,,FEW047,0.00,VWS V14.01,2013-01-21 06:25:00,
2013-01-21 00:30:00,33.2,18.4,30.14,NNE,24,5.0,5.0,54,0.00,,FEW047,0.00,VWS V14.01,2013-01-21 06:30:00,
2013-01-21 00:35:00,33.1,18.3,30.13,North,355,4.0,7.0,54,0.00,,FEW047,0.00,VWS V14.01,2013-01-21 06:35:00,
2013-01-21 00:40:00,32.9,18.5,30.14,NW,325,5.0,8.0,55,0.00,,FEW047,0.00,VWS V14.01,2013-01-21 06:40:00,
2013-01-21 00:45:00,32.6,18.2,30.14,NNE,15,5.0,8.0,55,0.00,,FEW047,0.00,VWS V14.01,2013-01-21 06:45:00,
2013-01-21 00:50:00,32.4,17.6,30.15,NW,308,6.0,9.0,54,0.00,,FEW047,0.00,VWS V14.01,2013-01-21 06:50:00,
2013-01-21 00:55:00,32.2,17.0,30.15,North,360,9.0,10.0,53,0.00,,FEW047,0.00,VWS V14.01,2013-01-21 06:55:00,
2013-01-21 01:00:00,29.5,15.8,30.17,North,5,0.0,9.0,56,0.00,,CLR,0.00,VWS V14.01,2013-01-21 07:00:00,
2013-01-21 01:01:00,32.0,16.8,30.15,North,355,3.0,6.0,53,0.00,,FEW047,0.00,VWS V14.01,2013-01-21 07:01:00,
2013-01-21 01:06:00,31.8,16.6,30.15,North,360,4.0,8.0,53,0.00,,FEW047,0.00,VWS V14.01,2013-01-21 07:06:00,
2013-01-21 01:11:00,31.6,16.5,30.16,North,355,1.0,8.0,53,0.00,,FEW047,0.00,VWS V14.01,2013-01-21 07:11:00,
2013-01-21 01:16:00,31.3,16.2,30.16,NE,51,1.0,8.0,53,0.00,,FEW047,0.00,VWS V14.01,2013-01-21 07:16:00,
2013-01-21 01:22:00,31.1,15.5,30.16,NNW,346,4.0,10.0,52,0.00,,FEW047,0.00,VWS V14.01,2013-01-21 07:22:00,
2013-01-21 01:27:00,30.8,15.7,30.16,NNW,337,3.0,14.0,53,0.00,,FEW047,0.00,VWS V14.01,2013-01-21 07:27:00,
2013-01-21 01:30:00,28.7,15.8,30.19,North,350,1.0,8.0,58,0.00,,CLR,0.00,VWS V14.01,2013-01-21 07:30:00,
2013-01-21 01:32:00,30.6,15.9,30.16,NE,46,4.0,9.0,54,0.00,,FEW047,0.00,VWS V14.01,2013-01-21 07:32:00,
2013-01-21 01:37:00,30.3,15.7,30.16,North,355,2.0,9.0,54,0.00,,FEW047,0.00,VWS V14.01,2013-01-21 07:37:00,
2013-01-21 01:42:00,30.2,15.6,30.17,North,11,2.0,9.0,54,0.00,,FEW047,0.00,VWS V14.01,2013-01-21 07:42:00,
2013-01-21 01:47:00,29.9,15.3,30.17,NNE,16,2.0,9.0,54,0.00,,FEW047,0.00,VWS V14.01,2013-01-21 07:47:00,
2013-01-21 01:53:00,29.7,15.5,30.17,NNW,336,1.0,9.0,55,0.00,,FEW047,0.00,VWS V14.01,2013-01-21 07:53:00,
2013-01-21 01:58:00,29.6,15.8,30.17,NNW,345,1.0,9.0,56,0.00,,FEW047,0.00,VWS V14.01,2013-01-21 07:58:00,
2013-01-21 02:00:00,27.9,15.8,30.20,NNW,344,3.0,6.0,60,0.00,,CLR,0.00,VWS V14.01,2013-01-21 08:00:00,
2013-01-21 02:03:00,29.4,15.7,30.18,NE,34,2.0,5.0,56,0.00,,FEW047,0.00,VWS V14.01,2013-01-21 08:03:00,
2013-01-21 02:08:00,29.2,15.5,30.18,NNW,333,1.0,6.0,56,0.00,,FEW047,0.00,VWS V14.01,2013-01-21 08:08:00,
2013-01-21 02:13:00,29.1,15.8,30.18,North,5,0.0,6.0,57,0.00,,FEW047,0.00,VWS V14.01,2013-01-21 08:13:00,
2013-01-21 02:18:00,28.9,15.6,30.19,North,360,4.0,8.0,57,0.00,,FEW047,0.00,VWS V14.01,2013-01-21 08:18:00,
2013-01-21 02:23:00,28.8,15.5,30.19,NW,306,2.0,8.0,57,0.00,,FEW047,0.00,VWS V14.01,2013-01-21 08:23:00,
2013-01-21 02:28:00,28.7,15.4,30.19,NNW,328,2.0,8.0,57,0.00,,FEW047,0.00,VWS V14.01,2013-01-21 08:28:00,
2013-01-21 02:30:00,27.7,14.9,30.20,North,5,2.0,10.0,58,0.00,,CLR,0.00,VWS V14.01,2013-01-21 08:30:00,
2013-01-21 02:33:00,28.6,15.7,30.20,NNW,338,5.0,5.0,58,0.00,,FEW047,0.00,VWS V14.01,2013-01-21 08:33:00,
2013-01-21 02:39:00,28.4,15.9,30.20,NNW,338,0.0,5.0,59,0.00,,FEW047,0.00,VWS V14.01,2013-01-21 08:39:00,
2013-01-21 02:44:00,28.2,15.7,30.20,NNE,26,0.0,6.0,59,0.00,,FEW047,0.00,VWS V14.01,2013-01-21 08:44:00,
2013-01-21 02:49:00,28.1,15.6,30.20,North,5,3.0,6.0,59,0.00,,FEW047,0.00,VWS V14.01,2013-01-21 08:49:00,
2013-01-21 02:54:00,28.0,15.5,30.20,NNW,327,3.0,6.0,59,0.00,,FEW047,0.00,VWS V14.01,2013-01-21 08:54:00,
2013-01-21 02:59:00,28.0,15.9,30.20,NNW,330,1.0,6.0,60,0.00,,FEW047,0.00,VWS V14.01,2013-01-21 08:59:00,
2013-01-21 03:00:00,27.4,13.4,30.21,WNW,301,2.0,9.0,55,0.00,,CLR,0.00,VWS V14.01,2013-01-21 09:00:00,
2013-01-21 03:04:00,27.9,15.8,30.20,NNE,26,5.0,6.0,60,0.00,,FEW047,0.00,VWS V14.01,2013-01-21 09:04:00,
2013-01-21 03:09:00,27.8,15.7,30.20,North,5,2.0,10.0,60,0.00,,FEW047,0.00,VWS V14.01,2013-01-21 09:09:00,
2013-01-21 03:14:00,27.8,15.4,30.20,NE,39,1.0,10.0,59,0.00,,FEW047,0.00,VWS V14.01,2013-01-21 09:14:00,
2013-01-21 03:19:00,27.8,15.4,30.20,North,355,2.0,10.0,59,0.00,,FEW047,0.00,VWS V14.01,2013-01-21 09:19:00,
2013-01-21 03:24:00,27.7,14.9,30.20,North,5,0.0,10.0,58,0.00,,FEW047,0.00,VWS V14.01,2013-01-21 09:24:00,
2013-01-21 03:29:00,27.7,14.9,30.20,NNW,333,2.0,10.0,58,0.00,,FEW047,0.00,VWS V14.01,2013-01-21 09:29:00,
2013-01-21 03:30:00,26.6,11.8,30.22,NNW,338,2.0,9.0,53,0.00,,CLR,0.00,VWS V14.01,2013-01-21 09:30:00,
2013-01-21 03:34:00,27.6,14.8,30.20,North,355,5.0,5.0,58,0.00,,FEW047,0.00,VWS V14.01,2013-01-21 09:34:00,
2013-01-21 03:39:00,27.6,14.8,30.21,North,5,2.0,6.0,58,0.00,,FEW047,0.00,VWS V14.01,2013-01-21 09:39:00,
2013-01-21 03:45:00,27.5,14.7,30.21,NNW,331,9.0,9.0,58,0.00,,FEW047,0.00,VWS V14.01,2013-01-21 09:45:00,
2013-01-21 03:50:00,27.4,14.2,30.21,NNW,348,7.0,9.0,57,0.00,,FEW047,0.00,VWS V14.01,2013-01-21 09:50:00,
2013-01-21 03:55:00,27.4,14.2,30.21,NNW,340,7.0,9.0,57,0.00,,FEW047,0.00,VWS V14.01,2013-01-21 09:55:00,
2013-01-21 04:00:00,27.4,13.4,30.21,NW,322,2.0,9.0,55,0.00,,FEW047,0.00,VWS V14.01,2013-01-21 10:00:00,
2013-01-21 04:05:00,27.2,12.8,30.21,NW,326,5.0,8.0,54,0.00,,FEW047,0.00,VWS V14.01,2013-01-21 10:05:00,
2013-01-21 04:10:00,27.2,12.8,30.21,NW,311,0.0,8.0,54,0.00,,FEW047,0.00,VWS V14.01,2013-01-21 10:10:00,
2013-01-21 04:15:00,27.0,12.2,30.21,NNW,333,3.0,9.0,53,0.00,,FEW047,0.00,VWS V14.01,2013-01-21 10:15:00,
2013-01-21 04:20:00,26.9,12.1,30.21,NNW,346,3.0,9.0,53,0.00,,FEW047,0.00,VWS V14.01,2013-01-21 10:20:00,
2013-01-21 04:25:00,26.8,12.0,30.22,NNW,337,3.0,9.0,53,0.00,,FEW047,0.00,VWS V14.01,2013-01-21 10:25:00,
2013-01-21 04:30:00,26.6,11.8,30.22,NNW,328,2.0,2.0,53,0.00,,FEW047,0.00,VWS V14.01,2013-01-21 10:30:00,
2013-01-21 04:35:00,26.5,11.7,30.22,NNW,347,3.0,4.0,53,0.00,,FEW047,0.00,VWS V14.01,2013-01-21 10:35:00,
2013-01-21 04:40:00,26.3,11.5,30.22,NW,305,3.0,4.0,53,0.00,,FEW047,0.00,VWS V14.01,2013-01-21 10:40:00,
2013-01-21 04:46:00,26.2,11.4,30.22,NNW,348,1.0,5.0,53,0.00,,FEW047,0.00,VWS V14.01,2013-01-21 10:46:00,
2013-01-21 04:51:00,26.1,11.7,30.22,North,355,2.0,5.0,54,0.00,,FEW047,0.00,VWS V14.01,2013-01-21 10:51:00,
2013-01-21 04:56:00,26.0,11.6,30.23,NNW,344,0.0,5.0,54,0.00,,FEW047,0.00,VWS V14.01,2013-01-21 10:56:00,
2013-01-21 05:00:00,24.2,13.1,30.24,NW,326,1.0,4.0,62,0.00,,CLR,0.00,VWS V14.01,2013-01-21 11:00:00,
2013-01-21 05:01:00,25.9,12.0,30.23,NNW,344,1.0,2.0,55,0.00,,FEW047,0.00,VWS V14.01,2013-01-21 11:01:00,
2013-01-21 05:06:00,25.7,11.8,30.24,NW,307,3.0,4.0,55,0.00,,FEW047,0.00,VWS V14.01,2013-01-21 11:06:00,
2013-01-21 05:11:00,25.6,11.7,30.24,NNW,333,2.0,4.0,55,0.00,,FEW047,0.00,VWS V14.01,2013-01-21 11:11:00,
2013-01-21 05:17:00,25.4,11.9,30.24,NNW,329,1.0,4.0,56,0.00,,FEW047,0.00,VWS V14.01,2013-01-21 11:17:00,
2013-01-21 05:22:00,25.3,12.2,30.23,NW,304,1.0,4.0,57,0.00,,FEW047,0.00,VWS V14.01,2013-01-21 11:22:00,
2013-01-21 05:27:00,25.1,12.4,30.24,NW,324,0.0,4.0,58,0.00,,FEW047,0.00,VWS V14.01,2013-01-21 11:27:00,
2013-01-21 05:30:00,23.5,13.5,30.24,WNW,298,1.0,4.0,65,0.00,,CLR,0.00,VWS V14.01,2013-01-21 11:30:00,
2013-01-21 05:32:00,24.9,12.6,30.24,NNW,327,2.0,3.0,59,0.00,,FEW047,0.00,VWS V14.01,2013-01-21 11:32:00,
2013-01-21 05:37:00,24.7,12.8,30.24,North,355,2.0,3.0,60,0.00,,FEW047,0.00,VWS V14.01,2013-01-21 11:37:00,
2013-01-21 05:42:00,24.5,12.6,30.24,NNW,333,2.0,4.0,60,0.00,,FEW047,0.00,VWS V14.01,2013-01-21 11:42:00,
2013-01-21 05:47:00,24.4,12.5,30.24,NW,310,0.0,4.0,60,0.00,,FEW047,0.00,VWS V14.01,2013-01-21 11:47:00,
2013-01-21 05:52:00,24.3,12.8,30.24,NNW,343,0.0,4.0,61,0.00,,FEW047,0.00,VWS V14.01,2013-01-21 11:52:00,
2013-01-21 05:57:00,24.2,13.1,30.24,NNW,334,0.0,4.0,62,0.00,,FEW047,0.00,VWS V14.01,2013-01-21 11:57:00,
2013-01-21 06:00:00,22.9,13.6,30.26,NW,319,1.0,4.0,67,0.00,,CLR,0.00,VWS V14.01,2013-01-21 12:00:00,
2013-01-21 06:03:00,24.1,13.0,30.24,WNW,300,0.0,1.0,62,0.00,,FEW047,0.00,VWS V14.01,2013-01-21 12:03:00,
2013-01-21 06:08:00,23.9,12.8,30.24,NW,321,2.0,4.0,62,0.00,,FEW047,0.00,VWS V14.01,2013-01-21 12:08:00,
2013-01-21 06:13:00,23.8,13.1,30.24,NW,311,0.0,4.0,63,0.00,,FEW047,0.00,VWS V14.01,2013-01-21 12:13:00,
2013-01-21 06:18:00,23.7,13.3,30.24,NW,305,0.0,4.0,64,0.00,,FEW047,0.00,VWS V14.01,2013-01-21 12:18:00,
2013-01-21 06:23:00,23.6,13.2,30.24,WNW,292,1.0,4.0,64,0.00,,FEW047,0.00,VWS V14.01,2013-01-21 12:23:00,
2013-01-21 06:28:00,23.5,13.5,30.24,NW,314,0.0,4.0,65,0.00,,FEW047,0.00,VWS V14.01,2013-01-21 12:28:00,
2013-01-21 06:30:00,22.5,14.2,30.26,NNW,335,0.0,3.0,70,0.00,,CLR,0.00,VWS V14.01,2013-01-21 12:30:00,
2013-01-21 06:33:00,23.4,13.4,30.24,NW,304,1.0,3.0,65,0.00,,FEW047,0.00,VWS V14.01,2013-01-21 12:33:00,
2013-01-21 06:38:00,23.3,13.6,30.25,North,355,2.0,4.0,66,0.00,,FEW047,0.00,VWS V14.01,2013-01-21 12:38:00,
2013-01-21 06:44:00,23.2,13.5,30.25,NNW,330,0.0,4.0,66,0.00,,FEW047,0.00,VWS V14.01,2013-01-21 12:44:00,
2013-01-21 06:49:00,23.1,13.8,30.25,NNW,329,1.0,4.0,67,0.00,,FEW047,0.00,VWS V14.01,2013-01-21 12:49:00,
2013-01-21 06:54:00,23.1,13.8,30.25,NW,309,1.0,4.0,67,0.00,,FEW047,0.00,VWS V14.01,2013-01-21 12:54:00,
2013-01-21 06:59:00,22.9,13.6,30.26,NW,321,0.0,4.0,67,0.00,,FEW047,0.00,VWS V14.01,2013-01-21 12:59:00,
2013-01-21 07:00:00,22.8,14.8,30.27,WNW,303,1.0,2.0,71,0.00,,CLR,0.00,VWS V14.01,2013-01-21 13:00:00,
2013-01-21 07:04:00,22.8,13.8,30.26,WNW,297,1.0,2.0,68,0.00,,FEW047,0.00,VWS V14.01,2013-01-21 13:04:00,
2013-01-21 07:09:00,22.7,13.7,30.26,NW,319,0.0,2.0,68,0.00,,FEW047,0.00,VWS V14.01,2013-01-21 13:09:00,
2013-01-21 07:14:00,22.7,13.7,30.26,North,349,0.0,2.0,68,0.00,,FEW047,0.00,VWS V14.01,2013-01-21 13:14:00,
2013-01-21 07:20:00,22.6,14.0,30.26,NW,323,1.0,2.0,69,0.00,,FEW047,0.00,VWS V14.01,2013-01-21 13:20:00,
2013-01-21 07:25:00,22.6,14.3,30.26,NW,315,0.0,3.0,70,0.00,,FEW047,0.00,VWS V14.01,2013-01-21 13:25:00,
2013-01-21 07:30:00,22.5,14.2,30.26,NNW,335,0.0,3.0,70,0.00,,FEW047,0.00,VWS V14.01,2013-01-21 13:30:00,
2013-01-21 07:35:00,22.4,14.1,30.26,NW,323,1.0,1.0,70,0.00,,FEW047,0.00,VWS V14.01,2013-01-21 13:35:00,
2013-01-21 07:40:00,22.4,14.4,30.26,NNW,330,1.0,2.0,71,0.00,,FEW047,0.00,VWS V14.01,2013-01-21 13:40:00,
2013-01-21 07:45:00,22.4,14.1,30.26,NNW,328,0.0,2.0,70,0.00,,FEW047,0.00,VWS V14.01,2013-01-21 13:45:00,
2013-01-21 07:50:00,22.5,14.2,30.26,NNW,337,0.0,2.0,70,0.00,,FEW047,0.00,VWS V14.01,2013-01-21 13:50:00,
2013-01-21 07:56:00,22.6,14.6,30.26,NNW,337,0.0,2.0,71,0.00,,FEW047,0.00,VWS V14.01,2013-01-21 13:56:00,
2013-01-21 08:00:00,26.6,15.4,30.28,North,355,2.0,6.0,62,0.00,,CLR,0.00,VWS V14.01,2013-01-21 14:00:00,
2013-01-21 08:01:00,22.9,14.9,30.27,NNW,342,1.0,1.0,71,0.00,,FEW047,0.00,VWS V14.01,2013-01-21 14:01:00,
2013-01-21 08:06:00,23.2,14.6,30.26,North,350,2.0,3.0,69,0.00,,FEW047,0.00,VWS V14.01,2013-01-21 14:06:00,
2013-01-21 08:11:00,23.6,14.6,30.27,NW,325,0.0,5.0,68,0.00,,FEW047,0.00,VWS V14.01,2013-01-21 14:11:00,
2013-01-21 08:16:00,24.0,15.3,30.27,NW,323,0.0,5.0,69,0.00,,FEW047,0.00,VWS V14.01,2013-01-21 14:16:00,
2013-01-21 08:21:00,24.3,14.9,30.28,NW,315,1.0,5.0,67,0.00,,FEW047,0.00,VWS V14.01,2013-01-21 14:21:00,
2013-01-21 08:27:00,24.6,14.9,30.27,North,355,2.0,5.0,66,0.00,,FEW047,0.00,VWS V14.01,2013-01-21 14:27:00,
2013-01-21 08:30:00,28.2,14.9,30.30,NW,306,1.0,8.0,57,0.00,,CLR,0.00,VWS V14.01,2013-01-21 14:30:00,
2013-01-21 08:32:00,24.8,15.1,30.27,North,355,1.0,4.0,66,0.00,,FEW047,0.00,VWS V14.01,2013-01-21 14:32:00,
2013-01-21 08:37:00,25.2,15.1,30.27,NNE,14,1.0,4.0,65,0.00,,FEW047,0.00,VWS V14.01,2013-01-21 14:37:00,
2013-01-21 08:42:00,25.6,15.1,30.28,North,355,2.0,4.0,64,0.00,,FEW047,0.00,VWS V14.01,2013-01-21 14:42:00,
2013-01-21 08:47:00,25.8,15.0,30.28,NW,319,0.0,5.0,63,0.00,,FEW047,0.00,VWS V14.01,2013-01-21 14:47:00,
2013-01-21 08:52:00,26.1,14.9,30.28,NNE,15,2.0,5.0,62,0.00,,FEW047,0.00,VWS V14.01,2013-01-21 14:52:00,
2013-01-21 08:57:00,26.4,15.2,30.28,WNW,298,1.0,5.0,62,0.00,,FEW047,0.00,VWS V14.01,2013-01-21 14:57:00,
2013-01-21 09:00:00,29.3,14.7,30.30,NNE,23,4.0,9.0,54,0.00,,CLR,0.00,VWS V14.01,2013-01-21 15:00:00,
2013-01-21 09:02:00,26.7,15.4,30.28,NNW,344,3.0,8.0,62,0.00,,FEW047,0.00,VWS V14.01,2013-01-21 15:02:00,
2013-01-21 09:07:00,27.0,15.0,30.28,NNW,345,0.0,8.0,60,0.00,,FEW047,0.00,VWS V14.01,2013-01-21 15:07:00,
2013-01-21 09:13:00,27.2,15.2,30.29,North,5,4.0,8.0,60,0.00,,FEW047,0.00,VWS V14.01,2013-01-21 15:13:00,
2013-01-21 09:18:00,27.5,14.7,30.28,NNE,19,5.0,8.0,58,0.00,,FEW047,0.00,VWS V14.01,2013-01-21 15:18:00,
2013-01-21 09:23:00,27.8,15.0,30.29,North,5,0.0,8.0,58,0.00,,FEW047,0.00,VWS V14.01,2013-01-21 15:23:00,
2013-01-21 09:28:00,28.1,14.8,30.29,NNE,13,5.0,8.0,57,0.00,,FEW047,0.00,VWS V14.01,2013-01-21 15:28:00,
2013-01-21 09:30:00,30.8,13.9,30.29,ENE,74,0.0,9.0,49,0.00,,CLR,0.00,VWS V14.01,2013-01-21 15:30:00,
2013-01-21 09:33:00,28.1,14.8,30.29,NNW,348,4.0,9.0,57,0.00,,FEW047,0.00,VWS V14.01,2013-01-21 15:33:00,
2013-01-21 09:38:00,28.2,14.9,30.29,East,79,1.0,9.0,57,0.00,,FEW047,0.00,VWS V14.01,2013-01-21 15:38:00,
2013-01-21 09:43:00,28.4,14.7,30.29,NNW,340,4.0,9.0,56,0.00,,FEW047,0.00,VWS V14.01,2013-01-21 15:43:00,
2013-01-21 09:48:00,28.5,14.4,30.30,West,278,2.0,9.0,55,0.00,,FEW047,0.00,VWS V14.01,2013-01-21 15:48:00,
2013-01-21 09:53:00,28.9,15.2,30.30,NNW,334,2.0,9.0,56,0.00,,FEW047,0.00,VWS V14.01,2013-01-21 15:53:00,
2013-01-21 09:58:00,29.3,14.3,30.30,NNW,340,3.0,9.0,53,0.00,,FEW047,0.00,VWS V14.01,2013-01-21 15:58:00,
2013-01-21 10:00:00,32.8,15.3,30.27,North,5,2.0,7.0,48,0.00,,CLR,0.00,VWS V14.01,2013-01-21 16:00:00,
2013-01-21 10:03:00,29.4,14.4,30.30,North,360,2.0,6.0,53,0.00,,FEW047,0.00,VWS V14.01,2013-01-21 16:03:00,
2013-01-21 10:09:00,29.8,14.8,30.29,North,355,2.0,6.0,53,0.00,,FEW047,0.00,VWS V14.01,2013-01-21 16:09:00,
2013-01-21 10:14:00,30.1,14.6,30.29,NW,316,2.0,6.0,52,0.00,,FEW047,0.00,VWS V14.01,2013-01-21 16:14:00,
2013-01-21 10:19:00,30.2,14.7,30.29,NNW,337,6.0,9.0,52,0.00,,FEW047,0.00,VWS V14.01,2013-01-21 16:19:00,
2013-01-21 10:24:00,30.6,14.6,30.29,NE,38,6.0,9.0,51,0.00,,FEW047,0.00,VWS V14.01,2013-01-21 16:24:00,
2013-01-21 10:29:00,30.8,13.9,30.29,NE,36,3.0,9.0,49,0.00,,FEW047,0.00,VWS V14.01,2013-01-21 16:29:00,
2013-01-21 10:30:00,35.2,15.5,30.27,North,350,3.0,8.0,44,0.00,,CLR,0.00,VWS V14.01,2013-01-21 16:30:00,
2013-01-21 10:34:00,30.8,14.4,30.28,ENE,75,2.0,4.0,50,0.00,,FEW047,0.00,VWS V14.01,2013-01-21 16:34:00,
2013-01-21 10:39:00,31.2,14.7,30.28,North,360,2.0,4.0,50,0.00,,FEW047,0.00,VWS V14.01,2013-01-21 16:39:00,
2013-01-21 10:44:00,31.7,14.7,30.28,NW,316,2.0,4.0,49,0.00,,FEW047,0.00,VWS V14.01,2013-01-21 16:44:00,
2013-01-21 10:49:00,32.1,15.1,30.28,NNE,13,0.0,4.0,49,0.00,,FEW047,0.00,VWS V14.01,2013-01-21 16:49:00,
2013-01-21 10:55:00,32.5,14.5,30.28,West,281,0.0,7.0,47,0.00,,FEW047,0.00,VWS V14.01,2013-01-21 16:55:00,
2013-01-21 11:00:00,32.8,15.3,30.27,NW,314,4.0,7.0,48,0.00,,FEW047,0.00,VWS V14.01,2013-01-21 17:00:00,
2013-01-21 11:05:00,33.3,14.3,30.28,North,5,3.0,8.0,45,0.00,,FEW047,0.00,VWS V14.01,2013-01-21 17:05:00,
2013-01-21 11:10:00,33.7,14.6,30.27,NW,306,4.0,8.0,45,0.00,,FEW047,0.00,VWS V14.01,2013-01-21 17:10:00,
2013-01-21 11:15:00,34.2,14.6,30.27,North,5,4.0,8.0,44,0.00,,FEW047,0.00,VWS V14.01,2013-01-21 17:15:00,
2013-01-21 11:20:00,34.6,14.4,30.27,NNE,24,5.0,8.0,43,0.00,,FEW047,0.00,VWS V14.01,2013-01-21 17:20:00,
2013-01-21 11:25:00,34.9,15.2,30.27,NNE,22,0.0,8.0,44,0.00,,FEW047,0.00,VWS V14.01,2013-01-21 17:25:00,
2013-01-21 11:30:00,35.3,15.6,30.27,NW,323,4.0,4.0,44,0.00,,FEW047,0.00,VWS V14.01,2013-01-21 17:30:00,
2013-01-21 11:35:00,35.6,14.8,30.27,NNW,329,4.0,9.0,42,0.00,,FEW047,0.00,VWS V14.01,2013-01-21 17:35:00,
2013-01-21 11:40:00,35.9,13.9,30.26,North,351,7.0,9.0,40,0.00,,FEW047,0.00,VWS V14.01,2013-01-21 17:40:00,
2013-01-21 11:45:00,35.9,13.4,30.26,NNE,25,2.0,10.0,39,0.00,,FEW047,0.00,VWS V14.01,2013-01-21 17:45:00,
2013-01-21 11:51:00,35.9,14.5,30.26,NW,307,3.0,10.0,41,0.00,,FEW047,0.00,VWS V14.01,2013-01-21 17:51:00,
2013-01-21 11:56:00,36.4,14.4,30.26,NW,323,4.0,10.0,40,0.00,,FEW047,0.00,VWS V14.01,2013-01-21 17:56:00,
2013-01-21 12:00:00,37.9,14.6,30.24,West,267,4.0,12.0,38,0.00,,CLR,0.00,VWS V14.01,2013-01-21 18:00:00,
2013-01-21 12:01:00,36.5,14.5,30.26,North,355,7.0,7.0,40,0.00,,FEW047,0.00,VWS V14.01,2013-01-21 18:01:00,
2013-01-21 12:06:00,36.7,14.1,30.25,North,5,1.0,7.0,39,0.00,,FEW047,0.00,VWS V14.01,2013-01-21 18:06:00,
2013-01-21 12:11:00,36.8,14.2,30.25,NNE,23,3.0,9.0,39,0.00,,FEW047,0.00,VWS V14.01,2013-01-21 18:11:00,
2013-01-21 12:16:00,36.9,14.3,30.25,West,264,6.0,11.0,39,0.00,,FEW047,0.00,VWS V14.01,2013-01-21 18:16:00,
2013-01-21 12:21:00,36.9,13.7,30.25,NW,317,2.0,11.0,38,0.00,,FEW047,0.00,VWS V14.01,2013-01-21 18:21:00,
2013-01-21 12:26:00,37.1,13.9,30.25,WNW,297,5.0,11.0,38,0.00,,FEW047,0.00,VWS V14.01,2013-01-21 18:26:00,
2013-01-21 12:30:00,38.2,14.9,30.22,West,268,4.0,9.0,38,0.00,,CLR,0.00,VWS V14.01,2013-01-21 18:30:00,
2013-01-21 12:31:00,37.1,14.4,30.25,North,351,6.0,6.0,39,0.00,,FEW047,0.00,VWS V14.01,2013-01-21 18:31:00,
2013-01-21 12:37:00,37.1,13.9,30.25,WNW,296,4.0,11.0,38,0.00,,FEW047,0.00,VWS V14.01,2013-01-21 18:37:00,
2013-01-21 12:42:00,37.3,14.6,30.24,WNW,285,6.0,11.0,39,0.00,,FEW047,0.00,VWS V14.01,2013-01-21 18:42:00,
2013-01-21 12:47:00,37.5,14.2,30.24,North,355,6.0,11.0,38,0.00,,FEW047,0.00,VWS V14.01,2013-01-21 18:47:00,
2013-01-21 12:52:00,37.7,14.4,30.24,NW,304,7.0,12.0,38,0.00,,FEW047,0.00,VWS V14.01,2013-01-21 18:52:00,
2013-01-21 12:57:00,37.7,15.0,30.24,North,11,2.0,12.0,39,0.00,,FEW047,0.00,VWS V14.01,2013-01-21 18:57:00,
2013-01-21 13:00:00,39.3,15.2,30.21,WNW,293,3.0,14.0,37,0.00,,CLR,0.00,VWS V14.01,2013-01-21 19:00:00,
2013-01-21 13:02:00,38.0,14.7,30.24,NW,317,5.0,5.0,38,0.00,,FEW047,0.00,VWS V14.01,2013-01-21 19:02:00,
2013-01-21 13:08:00,38.1,14.8,30.23,North,355,4.0,6.0,38,0.00,,FEW047,0.00,VWS V14.01,2013-01-21 19:08:00,
2013-01-21 13:13:00,38.0,14.1,30.23,West,260,2.0,9.0,37,0.00,,FEW047,0.00,VWS V14.01,2013-01-21 19:13:00,
2013-01-21 13:18:00,38.1,14.1,30.22,West,267,5.0,9.0,37,0.00,,FEW047,0.00,VWS V14.01,2013-01-21 19:18:00,
2013-01-21 13:23:00,38.2,14.2,30.22,WNW,294,2.0,9.0,37,0.00,,FEW047,0.00,VWS V14.01,2013-01-21 19:23:00,
2013-01-21 13:28:00,38.2,14.2,30.22,SW,220,4.0,9.0,37,0.00,,FEW047,0.00,VWS V14.01,2013-01-21 19:28:00,
2013-01-21 13:30:00,40.0,15.9,30.21,WNW,294,2.0,11.0,37,0.00,,CLR,0.00,VWS V14.01,2013-01-21 19:30:00,
2013-01-21 13:33:00,38.6,15.2,30.22,WNW,297,2.0,8.0,38,0.00,,FEW047,0.00,VWS V14.01,2013-01-21 19:33:00,
2013-01-21 13:38:00,38.9,15.5,30.21,NW,306,1.0,9.0,38,0.00,,FEW047,0.00,VWS V14.01,2013-01-21 19:38:00,
2013-01-21 13:44:00,39.3,14.6,30.21,NNW,333,4.0,10.0,36,0.00,,FEW047,0.00,VWS V14.01,2013-01-21 19:44:00,
2013-01-21 13:49:00,39.2,14.5,30.21,NW,304,1.0,14.0,36,0.00,,FEW047,0.00,VWS V14.01,2013-01-21 19:49:00,
2013-01-21 13:54:00,39.3,15.2,30.21,North,360,4.0,14.0,37,0.00,,FEW047,0.00,VWS V14.01,2013-01-21 19:54:00,
2013-01-21 13:59:00,39.4,15.3,30.21,NW,324,5.0,14.0,37,0.00,,FEW047,0.00,VWS V14.01,2013-01-21 19:59:00,
2013-01-21 14:00:00,40.3,15.5,30.22,West,277,0.0,11.0,36,0.00,,CLR,0.00,VWS V14.01,2013-01-21 20:00:00,
2013-01-21 14:04:00,39.4,15.3,30.21,WNW,302,4.0,11.0,37,0.00,,FEW047,0.00,VWS V14.01,2013-01-21 20:04:00,
2013-01-21 14:09:00,39.6,15.5,30.21,West,278,3.0,11.0,37,0.00,,FEW047,0.00,VWS V14.01,2013-01-21 20:09:00,
2013-01-21 14:14:00,39.9,15.1,30.21,NNW,329,6.0,11.0,36,0.00,,FEW047,0.00,VWS V14.01,2013-01-21 20:14:00,
2013-01-21 14:19:00,39.9,15.1,30.22,North,355,2.0,11.0,36,0.00,,FEW047,0.00,VWS V14.01,2013-01-21 20:19:00,
2013-01-21 14:24:00,39.9,15.1,30.21,NNW,331,2.0,11.0,36,0.00,,FEW047,0.00,VWS V14.01,2013-01-21 20:24:00,
2013-01-21 14:29:00,40.0,15.9,30.21,WNW,289,4.0,11.0,37,0.00,,FEW047,0.00,VWS V14.01,2013-01-21 20:29:00,
2013-01-21 14:30:00,39.8,15.7,30.22,North,5,3.0,11.0,37,0.00,,CLR,0.00,VWS V14.01,2013-01-21 20:30:00,
2013-01-21 14:34:00,40.2,16.0,30.22,WNW,286,4.0,7.0,37,0.00,,FEW047,0.00,VWS V14.01,2013-01-21 20:34:00,
2013-01-21 14:40:00,40.6,15.8,30.22,NW,306,8.0,10.0,36,0.00,,FEW047,0.00,VWS V14.01,2013-01-21 20:40:00,
2013-01-21 14:45:00,40.6,15.8,30.21,WNW,298,3.0,11.0,36,0.00,,FEW047,0.00,VWS V14.01,2013-01-21 20:45:00,
2013-01-21 14:50:00,40.4,15.6,30.22,NW,322,8.0,11.0,36,0.00,,FEW047,0.00,VWS V14.01,2013-01-21 20:50:00,
2013-01-21 14:55:00,40.1,15.9,30.22,NNW,333,4.0,11.0,37,0.00,,FEW047,0.00,VWS V14.01,2013-01-21 20:55:00,
2013-01-21 15:00:00,40.3,15.5,30.22,West,271,2.0,2.0,36,0.00,,FEW047,0.00,VWS V14.01,2013-01-21 21:00:00,
2013-01-21 15:05:00,40.4,14.9,30.22,NW,304,4.0,10.0,35,0.00,,FEW047,0.00,VWS V14.01,2013-01-21 21:05:00,
2013-01-21 15:10:00,39.9,14.5,30.22,NW,319,6.0,10.0,35,0.00,,FEW047,0.00,VWS V14.01,2013-01-21 21:10:00,
2013-01-21 15:15:00,39.6,15.5,30.22,NNW,342,3.0,11.0,37,0.00,,FEW047,0.00,VWS V14.01,2013-01-21 21:15:00,
2013-01-21 15:21:00,39.7,16.2,30.22,NNW,335,2.0,11.0,38,0.00,,FEW047,0.00,VWS V14.01,2013-01-21 21:21:00,
2013-01-21 15:26:00,39.9,15.8,30.22,North,360,7.0,11.0,37,0.00,,FEW047,0.00,VWS V14.01,2013-01-21 21:26:00,
2013-01-21 15:30:00,37.6,16.0,30.23,NNW,340,2.0,9.0,41,0.00,,CLR,0.00,VWS V14.01,2013-01-21 21:30:00,
2013-01-21 15:31:00,39.7,15.6,30.22,West,281,1.0,6.0,37,0.00,,FEW047,0.00,VWS V14.01,2013-01-21 21:31:00,
2013-01-21 15:36:00,39.7,15.6,30.22,NNE,19,3.0,9.0,37,0.00,,FEW047,0.00,VWS V14.01,2013-01-21 21:36:00,
2013-01-21 15:41:00,39.6,15.5,30.22,NNE,28,3.0,9.0,37,0.00,,FEW047,0.00,VWS V14.01,2013-01-21 21:41:00,
2013-01-21 15:46:00,39.5,15.4,30.22,North,350,3.0,9.0,37,0.00,,FEW047,0.00,VWS V14.01,2013-01-21 21:46:00,
2013-01-21 15:51:00,39.6,15.5,30.22,WNW,294,3.0,9.0,37,0.00,,FEW047,0.00,VWS V14.01,2013-01-21 21:51:00,
2013-01-21 15:56:00,39.6,16.1,30.22,North,5,4.0,9.0,38,0.00,,FEW047,0.00,VWS V14.01,2013-01-21 21:56:00,
2013-01-21 16:00:00,35.8,16.0,30.22,North,5,2.0,10.0,44,0.00,,CLR,0.00,VWS V14.01,2013-01-21 22:00:00,
2013-01-21 16:02:00,39.3,15.8,30.22,North,360,5.0,5.0,38,0.00,,FEW047,0.00,VWS V14.01,2013-01-21 22:02:00,
2013-01-21 16:07:00,38.9,16.1,30.22,NNW,346,8.0,9.0,39,0.00,,FEW047,0.00,VWS V14.01,2013-01-21 22:07:00,
2013-01-21 16:12:00,38.5,15.7,30.22,NW,324,8.0,9.0,39,0.00,,FEW047,0.00,VWS V14.01,2013-01-21 22:12:00,
2013-01-21 16:17:00,38.2,15.4,30.22,NW,316,8.0,9.0,39,0.00,,FEW047,0.00,VWS V14.01,2013-01-21 22:17:00,
2013-01-21 16:22:00,37.9,15.8,30.22,NW,322,2.0,9.0,40,0.00,,FEW047,0.00,VWS V14.01,2013-01-21 22:22:00,
2013-01-21 16:27:00,37.7,16.1,30.22,North,5,5.0,9.0,41,0.00,,FEW047,0.00,VWS V14.01,2013-01-21 22:27:00,
2013-01-21 16:30:00,34.2,16.6,30.22,North,355,1.0,6.0,48,0.00,,CLR,0.00,VWS V14.01,2013-01-21 22:30:00,
2013-01-21 16:32:00,37.5,16.0,30.23,NW,311,10.0,10.0,41,0.00,,FEW047,0.00,VWS V14.01,2013-01-21 22:32:00,
2013-01-21 16:37:00,37.1,16.1,30.23,North,11,1.0,10.0,42,0.00,,FEW047,0.00,VWS V14.01,2013-01-21 22:37:00,
2013-01-21 16:43:00,36.8,15.9,30.23,NW,321,5.0,10.0,42,0.00,,FEW047,0.00,VWS V14.01,2013-01-21 22:43:00,
2013-01-21 16:48:00,36.5,16.1,30.23,North,5,3.0,10.0,43,0.00,,FEW047,0.00,VWS V14.01,2013-01-21 22:48:00,
2013-01-21 16:53:00,36.2,16.4,30.23,NE,40,6.0,10.0,44,0.00,,FEW047,0.00,VWS V14.01,2013-01-21 22:53:00,
2013-01-21 16:58:00,35.9,16.6,30.22,NE,38,1.0,10.0,45,0.00,,FEW047,0.00,VWS V14.01,2013-01-21 22:58:00,
2013-01-21 17:00:00,32.7,16.6,30.22,NNW,332,3.0,6.0,51,0.00,,CLR,0.00,VWS V14.01,2013-01-21 23:00:00,
2013-01-21 17:03:00,35.7,16.5,30.22,NE,39,2.0,3.0,45,0.00,,FEW047,0.00,VWS V14.01,2013-01-21 23:03:00,
2013-01-21 17:08:00,35.3,16.1,30.22,NW,321,2.0,4.0,45,0.00,,FEW047,0.00,VWS V14.01,2013-01-21 23:08:00,
2013-01-21 17:13:00,35.1,15.9,30.22,NNW,333,4.0,5.0,45,0.00,,FEW047,0.00,VWS V14.01,2013-01-21 23:13:00,
2013-01-21 17:18:00,34.9,16.2,30.22,WNW,301,0.0,6.0,46,0.00,,FEW047,0.00,VWS V14.01,2013-01-21 23:18:00,
2013-01-21 17:24:00,34.6,16.5,30.23,NW,311,3.0,6.0,47,0.00,,FEW047,0.00,VWS V14.01,2013-01-21 23:24:00,
2013-01-21 17:29:00,34.3,16.7,30.22,NW,312,1.0,6.0,48,0.00,,FEW047,0.00,VWS V14.01,2013-01-21 23:29:00,
2013-01-21 17:30:00,31.3,16.6,30.22,North,349,0.0,5.0,54,0.00,,CLR,0.00,VWS V14.01,2013-01-21 23:30:00,
2013-01-21 17:34:00,34.1,16.0,30.23,NNW,333,0.0,3.0,47,0.00,,FEW047,0.00,VWS V14.01,2013-01-21 23:34:00,
2013-01-21 17:39:00,33.7,16.6,30.22,NW,315,2.0,6.0,49,0.00,,FEW047,0.00,VWS V14.01,2013-01-21 23:39:00,
2013-01-21 17:44:00,33.4,16.3,30.22,WNW,300,4.0,6.0,49,0.00,,FEW047,0.00,VWS V14.01,2013-01-21 23:44:00,
2013-01-21 17:49:00,33.2,16.1,30.22,WNW,302,0.0,6.0,49,0.00,,FEW047,0.00,VWS V14.01,2013-01-21 23:49:00,
2013-01-21 17:54:00,33.0,16.9,30.22,NE,47,2.0,6.0,51,0.00,,FEW047,0.00,VWS V14.01,2013-01-21 23:54:00,
2013-01-21 17:59:00,32.8,16.7,30.22,North,5,0.0,6.0,51,0.00,,FEW047,0.00,VWS V14.01,2013-01-21 23:59:00,
2013-01-21 18:00:00,30.0,16.6,30.22,NNW,343,0.0,3.0,57,0.00,,CLR,0.00,VWS V14.01,2013-01-22 00:00:00,
2013-01-21 18:05:00,32.5,16.9,30.22,NNE,33,1.0,4.0,52,0.00,,FEW047,0.00,VWS V14.01,2013-01-22 00:05:00,
2013-01-21 18:10:00,32.2,16.6,30.22,NNW,346,3.0,4.0,52,0.00,,FEW047,0.00,VWS V14.01,2013-01-22 00:10:00,
2013-01-21 18:15:00,32.0,16.4,30.22,NNW,340,1.0,4.0,52,0.00,,FEW047,0.00,VWS V14.01,2013-01-22 00:15:00,
2013-01-21 18:20:00,31.7,16.5,30.22,NW,311,2.0,5.0,53,0.00,,FEW047,0.00,VWS V14.01,2013-01-22 00:20:00,
2013-01-21 18:25:00,31.5,16.4,30.22,NNE,27,4.0,5.0,53,0.00,,FEW047,0.00,VWS V14.01,2013-01-22 00:25:00,
2013-01-21 18:30:00,31.3,16.6,30.22,North,349,0.0,5.0,54,0.00,,FEW047,0.00,VWS V14.01,2013-01-22 00:30:00,
2013-01-21 18:35:00,31.1,16.4,30.22,NNE,15,0.0,3.0,54,0.00,,FEW047,0.00,VWS V14.01,2013-01-22 00:35:00,
2013-01-21 18:40:00,30.9,16.2,30.22,North,360,2.0,3.0,54,0.00,,FEW047,0.00,VWS V14.01,2013-01-22 00:40:00,
2013-01-21 18:45:00,30.7,16.5,30.22,NW,318,0.0,3.0,55,0.00,,FEW047,0.00,VWS V14.01,2013-01-22 00:45:00,
2013-01-21 18:51:00,30.5,16.3,30.22,North,5,0.0,3.0,55,0.00,,FEW047,0.00,VWS V14.01,2013-01-22 00:51:00,
2013-01-21 18:56:00,30.2,16.4,30.22,NNW,345,0.0,3.0,56,0.00,,FEW047,0.00,VWS V14.01,2013-01-22 00:56:00,
2013-01-21 19:00:00,28.2,16.5,30.23,NE,43,0.0,3.0,61,0.00,,CLR,0.00,VWS V14.01,2013-01-22 01:00:00,
2013-01-21 19:01:00,30.0,16.6,30.22,NNW,343,0.0,0.0,57,0.00,,FEW047,0.00,VWS V14.01,2013-01-22 01:01:00,
2013-01-21 19:06:00,29.8,16.8,30.22,NNW,327,2.0,2.0,58,0.00,,FEW047,0.00,VWS V14.01,2013-01-22 01:06:00,
2013-01-21 19:11:00,29.5,16.6,30.22,NW,321,2.0,4.0,58,0.00,,FEW047,0.00,VWS V14.01,2013-01-22 01:11:00,
2013-01-21 19:16:00,29.3,16.4,30.22,NNW,334,1.0,5.0,58,0.00,,FEW047,0.00,VWS V14.01,2013-01-22 01:16:00,
2013-01-21 19:21:00,29.1,16.6,30.22,NNW,347,1.0,5.0,59,0.00,,FEW047,0.00,VWS V14.01,2013-01-22 01:21:00,
2013-01-21 19:26:00,29.0,16.5,30.22,NW,318,1.0,5.0,59,0.00,,FEW047,0.00,VWS V14.01,2013-01-22 01:26:00,
2013-01-21 19:30:00,27.4,16.5,30.24,NNE,15,1.0,2.0,63,0.00,,CLR,0.00,VWS V14.01,2013-01-22 01:30:00,
2013-01-21 19:32:00,28.8,16.3,30.22,NNE,13,0.0,2.0,59,0.00,,FEW047,0.00,VWS V14.01,2013-01-22 01:32:00,
2013-01-21 19:37:00,28.8,16.3,30.22,North,349,2.0,3.0,59,0.00,,FEW047,0.00,VWS V14.01,2013-01-22 01:37:00,
2013-01-21 19:42:00,28.7,16.2,30.23,North,355,2.0,3.0,59,0.00,,FEW047,0.00,VWS V14.01,2013-01-22 01:42:00,
2013-01-21 19:47:00,28.5,16.0,30.23,North,5,0.0,3.0,59,0.00,,FEW047,0.00,VWS V14.01,2013-01-22 01:47:00,
2013-01-21 19:52:00,28.4,16.3,30.23,NNE,16,0.0,3.0,60,0.00,,FEW047,0.00,VWS V14.01,2013-01-22 01:52:00,
2013-01-21 19:57:00,28.3,16.2,30.23,NE,43,0.0,3.0,60,0.00,,FEW047,0.00,VWS V14.01,2013-01-22 01:57:00,
2013-01-21 20:00:00,27.1,16.2,30.24,North,360,2.0,3.0,63,0.00,,CLR,0.00,VWS V14.01,2013-01-22 02:00:00,
2013-01-21 20:02:00,28.1,16.4,30.23,NE,43,0.0,0.0,61,0.00,,FEW047,0.00,VWS V14.01,2013-01-22 02:02:00,
2013-01-21 20:07:00,27.9,16.2,30.23,NE,43,0.0,0.0,61,0.00,,FEW047,0.00,VWS V14.01,2013-01-22 02:07:00,
2013-01-21 20:12:00,27.7,16.4,30.23,NE,43,0.0,0.0,62,0.00,,FEW047,0.00,VWS V14.01,2013-01-22 02:12:00,
2013-01-21 20:17:00,27.6,16.3,30.23,NE,42,0.0,1.0,62,0.00,,FEW047,0.00,VWS V14.01,2013-01-22 02:17:00,
2013-01-21 20:23:00,27.5,16.2,30.23,NNW,335,0.0,1.0,62,0.00,,FEW047,0.00,VWS V14.01,2013-01-22 02:23:00,
2013-01-21 20:28:00,27.4,16.5,30.24,NNE,26,1.0,1.0,63,0.00,,FEW047,0.00,VWS V14.01,2013-01-22 02:28:00,
2013-01-21 20:30:00,27.0,15.4,30.25,NNE,29,0.0,5.0,61,0.00,,CLR,0.00,VWS V14.01,2013-01-22 02:30:00,
2013-01-21 20:33:00,27.3,16.4,30.24,North,350,0.0,2.0,63,0.00,,FEW047,0.00,VWS V14.01,2013-01-22 02:33:00,
2013-01-21 20:38:00,27.2,15.9,30.24,North,355,0.0,2.0,62,0.00,,FEW047,0.00,VWS V14.01,2013-01-22 02:38:00,
2013-01-21 20:43:00,27.1,16.2,30.24,NNW,348,0.0,2.0,63,0.00,,FEW047,0.00,VWS V14.01,2013-01-22 02:43:00,
2013-01-21 20:48:00,27.1,16.2,30.24,NW,315,0.0,2.0,63,0.00,,FEW047,0.00,VWS V14.01,2013-01-22 02:48:00,
2013-01-21 20:53:00,27.1,16.2,30.24,NW,306,1.0,3.0,63,0.00,,FEW047,0.00,VWS V14.01,2013-01-22 02:53:00,
2013-01-21 20:58:00,27.1,16.2,30.24,NNW,342,3.0,3.0,63,0.00,,FEW047,0.00,VWS V14.01,2013-01-22 02:58:00,
2013-01-21 21:00:00,26.2,15.0,30.26,NNE,23,0.0,6.0,62,0.00,,CLR,0.00,VWS V14.01,2013-01-22 03:00:00,
2013-01-21 21:03:00,27.1,16.2,30.24,NW,320,2.0,4.0,63,0.00,,FEW047,0.00,VWS V14.01,2013-01-22 03:03:00,
2013-01-21 21:09:00,27.1,15.8,30.25,NNW,330,3.0,4.0,62,0.00,,FEW047,0.00,VWS V14.01,2013-01-22 03:09:00,
2013-01-21 21:14:00,27.1,15.4,30.25,North,5,0.0,4.0,61,0.00,,FEW047,0.00,VWS V14.01,2013-01-22 03:14:00,
2013-01-21 21:19:00,27.2,15.6,30.25,North,355,4.0,5.0,61,0.00,,FEW047,0.00,VWS V14.01,2013-01-22 03:19:00,
2013-01-21 21:24:00,27.2,15.6,30.25,North,9,0.0,5.0,61,0.00,,FEW047,0.00,VWS V14.01,2013-01-22 03:24:00,
2013-01-21 21:29:00,27.1,15.4,30.25,North,351,0.0,5.0,61,0.00,,FEW047,0.00,VWS V14.01,2013-01-22 03:29:00,
2013-01-21 21:30:00,25.4,14.2,30.26,NNE,14,2.0,7.0,62,0.00,,CLR,0.00,VWS V14.01,2013-01-22 03:30:00,
2013-01-21 21:34:00,26.9,15.3,30.25,NNE,32,2.0,6.0,61,0.00,,FEW047,0.00,VWS V14.01,2013-01-22 03:34:00,
2013-01-21 21:39:00,26.7,14.7,30.25,NNW,348,2.0,6.0,60,0.00,,FEW047,0.00,VWS V14.01,2013-01-22 03:39:00,
2013-01-21 21:44:00,26.6,15.0,30.25,NNE,24,1.0,6.0,61,0.00,,FEW047,0.00,VWS V14.01,2013-01-22 03:44:00,
2013-01-21 21:49:00,26.5,15.3,30.25,NE,46,0.0,6.0,62,0.00,,FEW047,0.00,VWS V14.01,2013-01-22 03:49:00,
2013-01-21 21:54:00,26.3,15.1,30.26,North,355,0.0,6.0,62,0.00,,FEW047,0.00,VWS V14.01,2013-01-22 03:54:00,
2013-01-21 21:59:00,26.2,15.0,30.26,North,5,0.0,6.0,62,0.00,,FEW047,0.00,VWS V14.01,2013-01-22 03:59:00,
2013-01-21 22:00:00,24.7,13.6,30.26,North,360,0.0,5.0,62,0.00,,CLR,0.00,VWS V14.01,2013-01-22 04:00:00,
2013-01-21 22:05:00,26.0,14.8,30.26,North,350,0.0,3.0,62,0.00,,FEW047,0.00,VWS V14.01,2013-01-22 04:05:00,
2013-01-21 22:10:00,25.8,15.0,30.26,NNE,28,0.0,5.0,63,0.00,,FEW047,0.00,VWS V14.01,2013-01-22 04:10:00,
2013-01-21 22:15:00,25.7,14.9,30.26,NNE,32,2.0,7.0,63,0.00,,FEW047,0.00,VWS V14.01,2013-01-22 04:15:00,
2013-01-21 22:20:00,25.6,14.4,30.26,North,5,0.0,7.0,62,0.00,,FEW047,0.00,VWS V14.01,2013-01-22 04:20:00,
2013-01-21 22:25:00,25.5,14.3,30.26,North,355,1.0,7.0,62,0.00,,FEW047,0.00,VWS V14.01,2013-01-22 04:25:00,
2013-01-21 22:30:00,25.4,14.2,30.26,NNE,17,2.0,2.0,62,0.00,,FEW047,0.00,VWS V14.01,2013-01-22 04:30:00,
2013-01-21 22:35:00,25.2,14.0,30.26,ENE,69,3.0,5.0,62,0.00,,FEW047,0.00,VWS V14.01,2013-01-22 04:35:00,
2013-01-21 22:40:00,25.1,13.9,30.26,North,5,1.0,5.0,62,0.00,,FEW047,0.00,VWS V14.01,2013-01-22 04:40:00,
2013-01-21 22:45:00,25.0,13.5,30.26,ENE,67,0.0,5.0,61,0.00,,FEW047,0.00,VWS V14.01,2013-01-22 04:45:00,
2013-01-21 22:51:00,24.9,13.7,30.26,NE,41,0.0,5.0,62,0.00,,FEW047,0.00,VWS V14.01,2013-01-22 04:51:00,
2013-01-21 22:56:00,24.8,13.6,30.26,North,5,1.0,5.0,62,0.00,,FEW047,0.00,VWS V14.01,2013-01-22 04:56:00,
2013-01-21 23:00:00,24.7,13.6,30.26,North,5,0.0,5.0,62,0.00,,FEW047,0.00,VWS V14.01,2013-01-22 05:00:00,
2013-01-21 23:01:00,24.7,13.6,30.26,NNW,347,0.0,2.0,62,0.00,,FEW047,0.00,VWS V14.01,2013-01-22 05:01:00,
2013-01-21 23:02:00,24.7,13.9,30.26,NNE,22,0.0,2.0,63,0.00,,FEW047,0.00,VWS V14.01,2013-01-22 05:02:00,
2013-01-21 23:07:00,24.5,13.7,30.26,East,79,0.0,2.0,63,0.00,,FEW047,0.00,VWS V14.01,2013-01-22 05:07:00,
2013-01-21 23:12:00,24.4,14.0,30.26,North,9,0.0,2.0,64,0.00,,FEW047,0.00,VWS V14.01,2013-01-22 05:12:00,
2013-01-21 23:17:00,24.3,13.9,30.26,East,81,0.0,2.0,64,0.00,,FEW047,0.00,VWS V14.01,2013-01-22 05:17:00,
2013-01-21 23:22:00,24.2,14.1,30.26,ENE,71,2.0,2.0,65,0.00,,FEW047,0.00,VWS V14.01,2013-01-22 05:22:00,
2013-01-21 23:28:00,24.0,13.6,30.26,NNE,15,1.0,4.0,64,0.00,,FEW047,0.00,VWS V14.01,2013-01-22 05:28:00,
2013-01-21 23:30:00,23.0,12.6,30.26,North,10,0.0,3.0,64,0.00,,CLR,0.00,VWS V14.01,2013-01-22 05:30:00,
2013-01-21 23:33:00,23.9,13.5,30.26,North,5,0.0,3.0,64,0.00,,FEW047,0.00,VWS V14.01,2013-01-22 05:33:00,
2013-01-21 23:38:00,23.8,13.4,30.27,North,350,0.0,3.0,64,0.00,,FEW047,0.00,VWS V14.01,2013-01-22 05:38:00,
2013-01-21 23:43:00,23.8,13.4,30.27,NE,49,1.0,3.0,64,0.00,,FEW047,0.00,VWS V14.01,2013-01-22 05:43:00,
2013-01-21 23:48:00,23.7,13.7,30.27,NNE,24,0.0,3.0,65,0.00,,FEW047,0.00,VWS V14.01,2013-01-22 05:48:00,
2013-01-21 23:53:00,23.6,13.6,30.27,North,5,1.0,3.0,65,0.00,,FEW047,0.00,VWS V14.01,2013-01-22 05:53:00,
2013-01-21 23:58:00,23.5,13.5,30.27,NNE,12,2.0,3.0,65,0.00,,FEW047,0.00,VWS V14.01,2013-01-22 05:58:00,